Regional Weather Roundup
Issued by NWS Newport/Morehead, NC

Current Version | Previous Version | Graphics & Text | Print | Product List | Glossary Off
Versions: 1 2 3 4 5 6 7 8 9 10 11 12 13 14 15 16 17 18 19 20 21 22 23 24 25 26 27 28 29 30 31 32 33 34 35 36 37 38 39 40 41 42 43 44 45 46 47 48 49 50

000
ASUS42 KMHX 261912
RWRMHX
WEATHER ROUNDUP FOR EASTERN NORTH CAROLINA
NATIONAL WEATHER SERVICE NEWPORT/MOREHEAD CITY NC
300 PM EDT SUN APR 26 2015

NOTE: "FAIR" INDICATES FEW OR NO CLOUDS BELOW 12,000 FEET
WITH NO SIGNIFICANT WEATHER AND/OR OBSTRUCTIONS TO VISIBILITY

NCZ015>017-031-032-045>047-102-103-262000-
NORTH COAST

CITY           SKY/WX    TMP DP  RH WIND       PRES   REMARKS
EDENTON        CLOUDY    53  48  84 N10       29.69R
ELIZABETH CITY CLOUDY    52  45  77 N10       29.69S
KITTY HAWK     CLOUDY    51  43  73 N13G20    29.66R
MANTEO         CLOUDY    51  45  79 N20G25    29.67R

$$

NCZ045>047-081-094-103-104-262000-
CENTRAL COAST

CITY           SKY/WX    TMP DP  RH WIND       PRES   REMARKS
FRISCO         CLOUDY    50  48  93 N12G28    29.64R
SWANQUARTER      N/A     54 N/A N/A N12       29.62S

$$

NCZ095-097-098-100-101-262000-
SOUTHERN COAST

CITY           SKY/WX    TMP DP  RH WIND       PRES   REMARKS
BEAUFORT       CLOUDY    56  51  84 N10       29.66R
CEDAR ISLAND     N/A     54 N/A N/A NW13G23   29.71R
JACKSONVILLE   CLOUDY    58  49  72 N12       29.67S
PINEY ISLAND   CLOUDY   N/A N/A N/A N13       29.66R
WILMINGTON     CLOUDY    61  52  72 N12       29.67R


$$

NCZ011>013-027>030-043-044-078>080-089-090>093-098-262000-
COASTAL PLAIN

CITY           SKY/WX    TMP DP  RH WIND       PRES   REMARKS
AHOSKIE        CLOUDY    50  44  79 N5        29.72S
CLINTON        CLOUDY    53  50  88 N8        29.71S
ELIZABETHTOWN  CLOUDY    57  51  80 NE3       29.70R
GOLDSBORO      CLOUDY    53  49  86 N9        29.69R
GREENVILLE     CLOUDY    52  46  82 N6        29.74R
HAVELOCK       CLOUDY    56  49  77 N13       29.68R
KENANSVILLE    CLOUDY    55  49  80 N9        29.71S
KINSTON        CLOUDY    54  48  82 N9        29.71R
NEW BERN       CLOUDY    54  48  80 N9        29.70R
RICHLANDS      CLOUDY    55  46  71 N7        29.68F
ROCKY MOUNT    CLOUDY    53  46  77 N12       29.72R
WASHINGTON     CLOUDY    51  47  87 NW6       29.70R
WHITEVILLE     CLOUDY    58  51  77 N6        29.67F

$$

AMZ130-135-150-152-154-156-158-170-250-252-270-ANZ085-086-088-633-658-670-262000-
MARINE OBSERVATIONS

STATION/POSITION TIME  TEMP    WIND        PRES    WAVE   SWELL
                       AIR SEA DIR/SP/G            HT/PER HT/PER
                 (UTC) (F)     (DEG/KT/KT) (MB)    (FT/S) (FT/S)
CHESAPEAKE LIGHT 1900   51      10/ 14/ 15 1005.6
64 E VA BEACH    1850   52 57   10/ 19/ 23 1002.8    6/ 6   2/ 9
DUCK             1800   49 54   10/ 17/ 21 1003.4
2 E DUCK         1811      54                N/A     5/ 6
10 NE DUCK       NOT AVBL
OREGON INLET     1800   49 54  350/ 18/ 22 1003.9
HATTERAS CG      1800   55 63  360/ 22/ 25 1002.5
DIAMOND BUOY     1850   55 76  360/ 25/ 31 1002.0    7/ 8
CAPE LOOKOUT     1900   56     350/ 14/ 16 1003.7
BEAUFORT LAB     1800   55 62  360/ 11/ 15 1003.2
27 SE WRIGHTSVLE 1800   57 72   10/ 14/ 19   N/A
5 SE WRIGHTSVLE  1808   58 65  360/ 10/ 14 1003.8
225 S CAPE HAT   1850   73 71  270/ 16/ 19 1002.0    8/ 8   5/13
41 SE CHARLESTON 1850   72 72  240/ 16/ 19 1002.3    5/ 6   2/11

$$


USA.gov is the U.S. government's official web portal to all federal, state and local government web resources and services.